Wind_Speed
9 9 8 6 6 7 6 5 5 5 7 8 9 11 13 13 12 12 11 11 11 11 10 9 11 12 14 14 14 14 14 13 13 13 12 13 13 13 14 14 16 17
9 8 6 5 6 5 4 5 6 7 9 10 10 11 12 10 9 9 9 9 9 9 9 9 10 12 12 13 13 13 12 11 12 12 12 12 13 13 14 14 15 16
7 6 5 4 4 5 5 6 8 8 8 8 8 8 7 7 6 6 7 7 8 8 9 10 10 11 11 11 12 12 11 11 12 13 13 13 14 14 14 15 15 15
3 2 2 3 4 5 5 5 4 4 3 4 4 4 4 5 5 6 6 7 7 8 10 11 11 12 12 11 11 12 12 12 12 11 12 14 14 15 15 15 16 16
2 3 4 4 3 3 2 0 2 2 3 3 3 4 4 5 5 7 8 8 9 9 9 11 11 11 12 11 11 12 12 12 11 10 12 13 14 15 14 14 15 16
3 3 3 3 2 2 4 4 5 4 4 4 4 4 4 5 6 8 9 9 11 11 10 12 12 10 11 11 11 12 12 12 12 12 12 13 14 15 14 14 16 17
3 3 4 5 5 6 6 6 6 4 4 4 3 4 5 6 8 9 10 11 12 13 12 13 12 11 12 12 11 11 11 12 12 12 13 13 14 15 15 16 18 18
6 6 7 7 7 7 7 6 5 4 4 4 4 4 6 7 9 10 11 12 14 15 15 15 13 12 12 12 11 11 11 12 12 12 13 13 14 15 16 17 18 19
8 8 8 8 7 7 6 6 5 5 5 5 5 5 6 8 9 10 11 13 15 16 18 18 15 13 12 12 12 12 12 12 13 14 14 15 15 16 17 18 19 19
8 8 7 7 7 6 5 5 5 6 6 6 6 7 7 8 9 10 12 14 16 17 19 20 17 15 15 14 14 14 14 14 15 15 16 16 17 18 18 19 19 20
8 8 7 6 5 4 4 5 5 6 7 7 7 8 9 10 11 12 13 15 17 19 22 22 20 18 17 16 16 16 16 17 17 17 17 17 18 19 19 20 20 20
8 7 6 4 3 4 4 6 7 8 8 8 9 10 11 12 13 14 14 16 19 22 25 25 22 20 19 18 18 18 18 18 18 18 18 18 19 19 20 20 21 21
6 4 3 3 4 6 7 8 9 9 10 11 11 11 12 13 15 15 16 18 20 23 27 27 23 21 20 19 19 19 19 19 19 19 20 19 20 20 20 21 21 21
3 3 4 6 7 8 9 9 9 10 11 12 12 12 13 14 16 17 17 19 21 24 28 28 24 22 21 20 19 19 19 19 20 20 19 19 19 19 19 19 20 20
4 5 6 7 8 9 9 9 10 11 12 13 13 13 14 16 17 17 18 20 22 25 29 28 24 22 21 20 20 19 19 19 19 19 18 18 18 19 19 20 21 21
5 6 7 8 8 9 9 10 11 12 13 14 14 14 15 16 17 18 19 21 23 27 28 26 23 21 21 20 19 18 17 17 17 17 17 17 17 18 19 20 21 22
7 8 8 9 9 10 11 12 14 14 15 16 16 16 17 17 19 21 21 22 26 28 27 24 22 21 19 18 17 15 15 14 14 15 15 16 17 18 18 20 21 22
9 9 10 10 11 13 13 14 15 16 17 17 18 18 18 19 21 23 24 26 28 27 24 23 21 19 17 16 15 14 14 14 14 15 16 17 18 19 21 22 23 24
10 10 11 13 14 15 16 16 16 18 18 18 19 20 20 20 22 25 26 27 26 24 22 21 20 18 17 16 16 16 15 15 15 16 17 18 20 22 24 25 26 27
11 12 13 15 16 17 17 17 18 19 19 19 19 21 21 22 24 26 25 24 23 22 20 19 18 18 17 17 18 17 17 16 16 17 19 20 23 25 27 27 28 28
13 14 15 17 18 18 18 18 19 20 20 19 20 21 22 24 24 24 23 22 21 20 18 18 17 17 18 18 19 18 18 18 18 19 21 23 26 27 27 27 28 29
15 17 18 19 19 19 18 19 20 21 21 21 22 22 23 23 22 22 22 21 19 18 17 18 18 18 19 19 19 18 18 19 20 22 24 26 27 27 27 27 28 29
17 19 20 20 19 18 18 19 20 21 21 21 21 21 21 21 21 21 20 19 18 17 17 18 19 19 19 19 19 19 19 20 22 24 26 27 27 27 27 28 28 29
18 19 19 18 17 18 18 19 19 20 20 20 20 20 20 19 19 19 18 17 17 17 17 17 18 19 19 19 19 20 20 22 24 25 26 27 28 28 28 29 29 29
18 19 18 17 17 18 18 18 19 19 19 19 19 19 18 17 17 17 17 17 17 17 17 18 18 19 19 20 21 21 22 23 25 27 27 28 29 29 30 29 30 29
18 18 18 17 17 17 17 17 18 18 19 19 19 19 17 16 16 17 17 17 17 17 18 18 18 19 20 21 21 22 24 25 26 28 29 29 30 31 30 29 27 26
Wind_Direction
223 224 224 221 212 217 223 226 242 261 268 274 278 281 285 287 288 290 292 296 298 296 295 289 283 288 293 295 296 293 291 290 287 285 283 280 276 272 268 266 263 262
214 214 215 210 203 211 228 245 257 263 268 275 279 283 287 290 296 302 307 310 310 306 303 299 296 297 298 298 295 291 290 291 290 288 286 282 280 278 274 270 267 266
203 198 203 208 213 228 241 249 257 265 273 280 285 290 297 306 313 318 321 322 320 317 315 313 310 307 305 303 302 303 303 302 301 299 295 291 289 288 288 285 281 279
206 204 229 243 244 243 247 255 264 281 302 312 319 325 335 340 343 345 343 338 333 328 322 320 320 316 314 312 309 310 310 307 308 304 300 300 298 296 296 293 290 289
257 258 250 242 241 238 243 324 52 45 28 20 13 12 10 5 5 3 358 352 343 337 327 323 323 318 315 314 309 308 307 305 306 301 297 301 302 301 299 294 292 292
248 235 221 202 169 121 99 81 72 64 54 48 35 29 27 23 20 12 6 359 350 344 335 328 326 320 315 312 306 303 301 300 301 299 296 296 297 298 297 293 293 294
194 166 149 132 115 100 91 83 80 77 71 67 54 46 40 31 25 15 4 1 357 352 344 335 329 323 314 309 305 302 299 298 297 295 294 293 292 292 293 293 295 296
149 138 129 120 110 99 94 89 82 72 62 60 51 42 35 27 22 13 360 357 359 356 350 342 333 326 318 313 310 305 301 299 296 294 293 293 292 292 292 293 294 295
137 130 121 113 107 100 92 78 63 51 42 36 28 20 14 11 8 2 354 355 358 355 350 345 338 329 322 317 313 309 306 303 300 299 298 296 294 293 293 292 293 295
122 114 108 104 98 87 72 56 44 34 23 14 8 2 354 348 345 344 346 350 353 351 348 345 339 331 325 319 315 312 309 306 304 303 302 300 299 298 297 296 296 297
109 104 100 93 82 66 44 29 20 11 4 358 352 349 345 341 338 338 340 342 344 347 348 345 337 330 324 319 315 313 310 308 306 305 304 303 301 301 300 299 298 297
106 103 95 80 58 32 12 1 354 347 343 341 337 336 339 341 339 337 335 334 337 343 344 340 334 328 323 318 316 314 313 311 310 308 307 304 303 302 301 300 299 298
108 97 71 36 11 1 354 349 346 340 336 335 332 332 334 335 334 331 327 327 332 337 337 334 330 325 320 317 316 315 314 313 311 309 308 305 304 303 303 303 302 301
83 43 16 4 357 353 350 348 345 340 338 333 330 329 329 327 327 325 321 321 325 329 330 328 324 321 318 316 316 316 315 314 312 310 309 308 307 306 306 306 306 304
27 9 358 352 350 349 348 345 339 334 331 326 324 324 322 321 321 320 317 316 318 323 325 323 321 319 318 317 317 317 317 315 313 313 312 312 312 312 311 311 309 307
360 354 349 345 342 338 334 332 331 329 325 323 323 322 320 319 317 314 312 312 315 320 322 320 318 318 318 318 317 317 316 315 314 314 314 314 314 313 312 310 308 305
344 344 344 340 332 325 324 325 325 326 326 326 324 322 323 323 317 313 312 314 317 319 319 317 317 319 319 317 317 317 316 315 314 315 315 315 315 315 315 313 310 307
339 337 333 329 323 321 324 324 323 324 326 325 323 323 324 321 315 313 314 315 316 317 316 316 318 320 321 319 319 319 317 316 317 317 319 321 323 323 322 320 316 313
330 324 320 319 319 320 321 321 323 325 325 323 322 320 319 315 312 312 313 314 314 314 315 317 320 323 323 323 322 320 318 317 318 320 322 324 325 324 323 320 317 314
319 315 314 314 315 317 318 317 320 322 321 319 314 311 313 314 312 312 312 312 313 314 316 320 321 323 323 322 320 318 315 313 314 317 319 320 321 321 320 317 315 312
312 310 310 310 310 312 313 312 313 314 314 312 307 308 312 313 312 312 312 313 314 317 320 322 322 323 321 319 317 314 309 308 309 312 314 315 317 317 317 315 313 311
307 306 306 307 309 309 308 308 309 310 310 307 306 310 314 313 313 314 314 314 317 321 323 324 322 322 319 316 313 310 307 306 307 309 311 313 315 316 317 316 315 313
304 305 307 310 310 307 306 306 307 307 307 306 307 310 312 312 313 314 314 317 321 323 324 322 319 317 315 312 311 310 310 310 309 310 312 314 317 319 319 318 316 314
305 308 310 310 308 306 305 305 305 305 306 307 308 310 312 312 313 314 317 320 321 320 319 317 314 313 314 314 315 316 316 314 313 314 316 319 320 321 321 319 317 315
306 308 308 306 305 304 304 304 305 306 307 309 312 314 314 313 315 318 320 320 318 317 317 316 315 316 318 319 320 319 318 318 318 319 321 323 324 323 322 320 317 315
302 303 303 302 301 300 301 304 306 307 310 313 314 314 314 315 318 320 318 317 317 317 318 318 318 319 320 321 320 320 321 322 323 325 326 327 326 325 323 321 320 320
Height
3187 3187 3188 3189 3190 3190 3191 3191 3191 3192 3192 3192 3192 3191 3191 3191 3190 3190 3190 3189 3188 3187 3186 3186 3185 3184 3183 3182 3181 3180 3179 3179 3178 3177 3177 3176 3175 3175 3175 3174 3174 3174
3187 3187 3189 3190 3190 3190 3190 3190 3191 3191 3191 3191 3190 3190 3189 3189 3188 3188 3187 3186 3186 3185 3184 3184 3183 3182 3181 3180 3179 3178 3177 3177 3176 3175 3174 3174 3173 3173 3172 3172 3172 3171
3187 3188 3189 3189 3189 3189 3189 3189 3190 3190 3190 3189 3189 3189 3188 3187 3187 3186 3186 3185 3185 3184 3183 3183 3182 3181 3180 3179 3177 3176 3176 3175 3174 3173 3172 3171 3171 3170 3170 3169 3169 3169
3187 3187 3188 3188 3188 3188 3188 3188 3188 3188 3188 3188 3188 3187 3187 3186 3186 3185 3185 3185 3184 3184 3183 3182 3181 3180 3179 3178 3176 3175 3174 3173 3173 3172 3171 3170 3169 3169 3168 3167 3167 3167
3186 3186 3187 3187 3187 3187 3187 3187 3187 3187 3187 3187 3187 3187 3187 3186 3186 3185 3185 3184 3184 3183 3182 3181 3180 3179 3177 3176 3175 3174 3173 3172 3172 3171 3170 3169 3168 3167 3166 3166 3165 3165
3186 3186 3186 3186 3187 3187 3187 3187 3187 3188 3188 3188 3187 3187 3187 3186 3186 3185 3184 3184 3183 3182 3181 3180 3178 3177 3176 3175 3174 3173 3172 3171 3171 3170 3169 3168 3167 3166 3164 3163 3163 3162
3186 3186 3186 3186 3187 3187 3187 3188 3188 3188 3188 3188 3188 3188 3187 3186 3186 3185 3184 3183 3182 3181 3180 3178 3177 3176 3175 3174 3173 3171 3170 3170 3169 3168 3167 3166 3165 3164 3163 3161 3160 3159
3186 3186 3186 3187 3187 3187 3188 3188 3188 3188 3188 3188 3188 3187 3187 3186 3185 3185 3184 3183 3181 3180 3178 3177 3175 3174 3173 3172 3171 3170 3168 3168 3167 3166 3165 3164 3163 3162 3161 3159 3158 3157
3186 3186 3187 3187 3187 3188 3188 3188 3188 3188 3188 3188 3187 3187 3186 3185 3184 3184 3183 3182 3180 3178 3177 3175 3174 3173 3171 3170 3169 3168 3167 3166 3164 3163 3162 3162 3161 3159 3158 3157 3156 3155
3186 3187 3187 3187 3188 3188 3188 3188 3188 3188 3187 3187 3186 3186 3185 3185 3184 3183 3182 3180 3179 3177 3176 3174 3172 3171 3170 3168 3167 3166 3165 3164 3162 3161 3160 3159 3158 3157 3156 3155 3154 3153
3186 3187 3187 3187 3188 3188 3187 3187 3187 3187 3186 3186 3185 3185 3184 3183 3182 3181 3180 3179 3178 3176 3174 3172 3171 3169 3168 3166 3165 3164 3163 3162 3160 3159 3158 3157 3155 3154 3153 3152 3151 3150
3187 3187 3187 3187 3187 3187 3187 3187 3186 3186 3186 3185 3184 3184 3183 3182 3181 3180 3179 3177 3176 3174 3172 3171 3169 3168 3166 3164 3163 3162 3161 3159 3158 3157 3156 3154 3153 3151 3150 3149 3148 3147
3187 3187 3187 3187 3187 3187 3187 3186 3186 3185 3185 3184 3183 3182 3181 3180 3179 3178 3177 3176 3174 3172 3171 3169 3167 3166 3164 3162 3161 3160 3158 3157 3156 3155 3153 3152 3150 3149 3148 3146 3145 3144
3187 3187 3187 3187 3187 3186 3186 3186 3185 3184 3183 3182 3181 3181 3180 3179 3178 3177 3175 3174 3172 3171 3169 3167 3166 3164 3162 3161 3159 3158 3156 3155 3153 3152 3151 3150 3148 3147 3145 3144 3143 3142
3187 3187 3187 3186 3186 3186 3185 3185 3184 3183 3182 3180 3180 3179 3178 3176 3175 3174 3173 3172 3171 3169 3167 3165 3163 3162 3160 3158 3157 3156 3154 3153 3151 3150 3149 3147 3146 3144 3143 3142 3140 3139
3186 3186 3186 3186 3185 3185 3184 3183 3182 3181 3180 3179 3178 3177 3176 3175 3173 3172 3172 3171 3169 3167 3165 3163 3161 3160 3158 3157 3155 3154 3152 3151 3149 3148 3147 3145 3144 3142 3141 3140 3138 3136
3186 3185 3185 3185 3184 3183 3182 3181 3180 3179 3178 3177 3176 3175 3174 3173 3172 3170 3169 3168 3166 3164 3163 3161 3159 3158 3156 3155 3153 3151 3150 3149 3147 3146 3145 3143 3142 3141 3139 3138 3136 3134
3185 3184 3184 3183 3182 3181 3180 3179 3178 3177 3176 3175 3174 3173 3172 3171 3170 3168 3167 3165 3164 3162 3160 3158 3157 3155 3154 3152 3151 3149 3148 3147 3145 3144 3143 3141 3140 3138 3136 3135 3133 3131
3183 3183 3182 3181 3181 3180 3179 3178 3177 3176 3174 3173 3172 3171 3170 3169 3168 3166 3165 3163 3161 3159 3158 3156 3154 3153 3151 3150 3148 3147 3146 3144 3143 3142 3140 3139 3137 3135 3133 3131 3129 3127
3182 3181 3181 3180 3179 3178 3177 3176 3175 3174 3173 3172 3171 3169 3168 3167 3166 3164 3162 3161 3159 3157 3156 3154 3152 3151 3149 3147 3146 3145 3144 3142 3141 3140 3138 3137 3135 3133 3131 3128 3126 3123
3181 3180 3179 3178 3178 3177 3176 3175 3174 3173 3171 3170 3169 3168 3166 3165 3163 3162 3160 3158 3157 3155 3154 3152 3150 3149 3147 3146 3144 3143 3142 3141 3139 3138 3136 3135 3133 3130 3128 3125 3123 3120
3179 3178 3178 3177 3176 3176 3175 3174 3173 3171 3170 3168 3167 3166 3164 3163 3161 3159 3158 3156 3155 3154 3152 3150 3148 3147 3146 3144 3143 3142 3140 3139 3137 3136 3134 3132 3130 3127 3125 3122 3120 3116
3178 3177 3176 3176 3175 3174 3173 3172 3171 3169 3168 3167 3165 3164 3162 3161 3159 3158 3156 3155 3153 3152 3150 3149 3147 3145 3144 3142 3141 3139 3138 3136 3135 3133 3131 3129 3127 3124 3121 3118 3116 3113
3177 3176 3175 3174 3173 3172 3171 3170 3169 3168 3166 3165 3164 3162 3161 3159 3158 3156 3155 3153 3152 3150 3149 3147 3145 3143 3142 3140 3138 3137 3135 3134 3132 3130 3128 3125 3123 3120 3117 3114 3112 3109
3176 3175 3174 3173 3172 3170 3169 3168 3167 3166 3164 3163 3161 3160 3159 3158 3156 3155 3153 3151 3150 3148 3147 3145 3144 3142 3140 3138 3136 3134 3133 3131 3129 3126 3124 3122 3119 3116 3114 3111 3108 3104
3174 3173 3172 3171 3170 3169 3168 3167 3165 3164 3162 3161 3159 3158 3158 3156 3155 3153 3151 3150 3148 3147 3145 3143 3142 3140 3138 3136 3134 3132 3130 3128 3125 3123 3120 3118 3116 3112 3109 3107 3104 3101